Starlink 32457

operational
NORAD ID: 61717 Int'l Des: 2024-196 Owner: SPXS Country: US Constellation: starlink
LEOCIRCULAR

Starlink 32457について

説明を読み込み中...

リアルタイム位置

3D地球を読み込み中...

次回通過

高度履歴

Altitude vs Time

uPlot chart will show altitude changes over time

軌道要素

1 61717U 24196L 25350.64199558 -.00000090 00000-0 90905-5 0 9994
2 61717 53.1606 126.9415 0001289 93.2732 266.8416 15.30184105 64448
Epoch: Dec 16, 2025 • Age: 28 hours

現在のステータス

高度 476.5 km
速度 7.63 km/s
衛星直下点 30.16°N, 123.53°E
打ち上げ日 Oct 30, 2024
運用期間 1.1 years
タイプ internet

技術仕様

分類 Payload
質量 730.00 kg
乾燥質量 700.00 kg
総質量 730.00 kg
長さ 0.30 m
直径 4.10 m
スパン 29.00 m
形状 Box + pan
製造者 SPXS
バスタイプ Starlink V2M
フェーズステータス In Orbit
所有者/国 SPXS/US

大規模コンステレーション

Loading constellations...